| time (UTC) | temp F | wind direction | speed knots | gust knots | rain 1hr in | rain 24hr in | rain mn in | humidity % | barometer mb |
| 20260507044751 | 50 | 94 | 1.7 | 1.7 | 0.00 | 1.11 | 1.11 | 99 | 1067.1 |
| 20260507044247 | 50 | 233 | 0.9 | 1.7 | 0.00 | 1.11 | 1.11 | 99 | 1067.1 |
| 20260507043743 | 49 | 79 | 2.6 | 5.2 | 0.00 | 1.11 | 1.11 | 99 | 1067.1 |
| 20260507043240 | 49 | 300 | 0.9 | 1.7 | 0.00 | 1.11 | 1.11 | 99 | 1066.9 |
| 20260507042737 | 49 | 247 | 0.9 | 0.9 | 0.00 | 1.11 | 1.11 | 99 | 1066.8 |
| 20260507042231 | 49 | 323 | 3.5 | 6.1 | 0.00 | 1.11 | 1.11 | 99 | 1066.9 |
| 20260507041729 | 49 | 302 | 1.7 | 1.7 | 0.00 | 1.11 | 1.11 | 99 | 1066.9 |
| 20260507041226 | 49 | 259 | 1.7 | 2.6 | 0.00 | 1.11 | 1.11 | 99 | 1066.9 |
| 20260507040723 | 49 | 228 | 1.7 | 1.7 | 0.00 | 1.11 | 1.11 | 99 | 1067.0 |
| 20260507040219 | 49 | 303 | 1.7 | 3.5 | 0.00 | 1.11 | 1.11 | 99 | 1066.9 |
| 20260507035715 | 49 | 286 | 2.6 | 2.6 | 0.00 | 1.11 | 1.11 | 99 | 1066.8 |
| 20260507035211 | 49 | 285 | 3.5 | 5.2 | 0.00 | 1.11 | 1.11 | 99 | 1066.8 |
| 20260507034708 | 49 | 101 | 1.7 | 1.7 | 0.00 | 1.11 | 1.11 | 99 | 1066.6 |
| 20260507034206 | 48 | 308 | 2.6 | 3.5 | 0.00 | 1.11 | 1.11 | 99 | 1066.4 |
| 20260507033704 | 48 | 37 | 1.7 | 2.6 | 0.00 | 1.11 | 1.11 | 99 | 1066.5 |
| 20260507033201 | 48 | 151 | 2.6 | 3.5 | 0.00 | 1.11 | 1.11 | 99 | 1066.3 |
| 20260507032658 | 48 | 309 | 4.3 | 6.1 | 0.00 | 1.11 | 1.11 | 99 | 1066.4 |
| 20260507032153 | 48 | 299 | 2.6 | 2.6 | 0.00 | 1.11 | 1.11 | 99 | 1066.4 |
| 20260507031651 | 48 | 313 | 0.9 | 1.7 | 0.00 | 1.11 | 1.11 | 99 | 1066.3 |
| 20260507031147 | 48 | 339 | 3.5 | 6.1 | 0.00 | 1.11 | 1.11 | 99 | 1066.4 |
| 20260507030644 | 48 | 183 | 1.7 | 2.6 | 0.00 | 1.11 | 1.11 | 99 | 1066.3 |
| 20260507030142 | 48 | 303 | 3.5 | 3.5 | 0.00 | 1.11 | 1.11 | 99 | 1066.2 |
| 20260507025639 | 48 | 249 | 3.5 | 5.2 | 0.00 | 1.11 | 1.11 | 99 | 1066.1 |
| 20260507025136 | 48 | 287 | 2.6 | 2.6 | 0.00 | 1.11 | 1.11 | 99 | 1066.0 |
| 20260507024634 | 48 | 284 | 1.7 | 2.6 | 0.00 | 1.11 | 1.11 | 99 | 1066.1 |
| 20260507024131 | 48 | 297 | 3.5 | 5.2 | 0.00 | 1.11 | 1.11 | 99 | 1065.7 |
| 20260507023626 | 48 | 215 | 0.9 | 0.9 | 0.00 | 1.11 | 1.11 | 99 | 1066.2 |
| 20260507023124 | 48 | 299 | 2.6 | 2.6 | 0.00 | 1.11 | 1.11 | 99 | 1065.7 |
| 20260507022621 | 48 | 317 | 1.7 | 2.6 | 0.00 | 1.11 | 1.11 | 99 | 1065.7 |
| 20260507022116 | 48 | 303 | 0.9 | 0.0 | 0.00 | 1.11 | 1.11 | 99 | 1065.9 |
| 20260507021613 | 48 | 303 | 1.7 | 2.6 | 0.00 | 1.11 | 1.11 | 99 | 1065.6 |
| 20260507021108 | 48 | 183 | 0.9 | 0.9 | 0.00 | 1.11 | 1.11 | 99 | 1065.6 |
| 20260507020607 | 48 | 314 | 1.7 | 1.7 | 0.00 | 1.11 | 1.11 | 99 | 1065.4 |
| 20260507015602 | 48 | 301 | 0.9 | 0.9 | 0.00 | 1.11 | 1.11 | 99 | 1065.3 |
| 20260507015058 | 48 | 297 | 1.7 | 2.6 | 0.00 | 1.11 | 1.11 | 99 | 1065.6 |
| 20260507014555 | 48 | 12 | 3.5 | 3.5 | 0.00 | 1.11 | 1.11 | 99 | 1065.3 |
| 20260507014050 | 48 | 305 | 1.7 | 2.6 | 0.00 | 1.11 | 1.11 | 99 | 1065.2 |
| 20260507013548 | 48 | 162 | 1.7 | 1.7 | 0.00 | 1.11 | 1.11 | 99 | 1065.5 |
| 20260507013045 | 48 | 168 | 2.6 | 2.6 | 0.00 | 1.11 | 1.11 | 99 | 1065.2 |
| 20260507012542 | 48 | 309 | 3.5 | 5.2 | 0.00 | 1.11 | 1.11 | 99 | 1064.9 |
| 20260507012038 | 48 | 304 | 2.6 | 5.2 | 0.00 | 1.11 | 1.11 | 99 | 1065.0 |
| 20260507011536 | 48 | 262 | 1.7 | 1.7 | 0.00 | 1.11 | 1.11 | 99 | 1065.2 |
| 20260507011031 | 48 | 301 | 0.9 | 1.7 | 0.00 | 1.11 | 1.11 | 99 | 1065.2 |
| 20260507010526 | 48 | 290 | 1.7 | 3.5 | 0.00 | 1.11 | 1.11 | 99 | 1065.3 |
| 20260507010023 | 48 | 296 | 3.5 | 3.5 | 0.00 | 1.11 | 1.11 | 99 | 1065.0 |
| 20260507005521 | 48 | 39 | 5.2 | 6.1 | 0.00 | 1.11 | 1.11 | 99 | 1064.8 |
| 20260507005017 | 48 | 283 | 5.2 | 7.0 | 0.00 | 1.11 | 1.11 | 99 | 1064.9 |
| 20260507004514 | 48 | 178 | 0.9 | 1.7 | 0.00 | 1.11 | 1.11 | 99 | 1064.7 |
| 20260507004011 | 48 | 96 | 3.5 | 5.2 | 0.00 | 1.11 | 1.11 | 99 | 1064.3 |
| 20260507003506 | 48 | 196 | 0.9 | 1.7 | 0.00 | 1.11 | 1.11 | 99 | 1064.4 |
| 20260507003001 | 48 | 286 | 2.6 | 3.5 | 0.00 | 1.11 | 1.11 | 99 | 1064.6 |
| 20260507002458 | 48 | 233 | 2.6 | 5.2 | 0.00 | 1.11 | 1.11 | 99 | 1064.7 |
| 20260507001955 | 48 | 309 | 3.5 | 3.5 | 0.00 | 1.11 | 1.11 | 99 | 1064.5 |
| 20260507001451 | 48 | 269 | 3.5 | 5.2 | 0.00 | 1.11 | 1.11 | 99 | 1064.5 |
| 20260507000949 | 48 | 289 | 1.7 | 2.6 | 0.00 | 1.11 | 1.11 | 99 | 1064.3 |
| 20260507000445 | 48 | 300 | 3.5 | 3.5 | 0.00 | 1.11 | 1.11 | 99 | 1064.4 |
| 20260506235940 | 48 | 265 | 2.6 | 3.5 | 0.00 | 1.11 | 1.11 | 99 | 1064.6 |
| 20260506235438 | 48 | 286 | 4.3 | 5.2 | 0.00 | 1.11 | 1.11 | 99 | 1064.7 |
| 20260506234933 | 48 | 1 | 2.6 | 3.5 | 0.00 | 1.11 | 1.11 | 99 | 1064.8 |
| 20260506234431 | 48 | 230 | 1.7 | 2.6 | 0.00 | 1.11 | 1.11 | 99 | 1064.9 |
| 20260506233929 | 48 | 252 | 4.3 | 5.2 | 0.00 | 1.11 | 1.11 | 99 | 1065.3 |
| 20260506233425 | 48 | 192 | 0.9 | 0.9 | 0.00 | 1.11 | 1.11 | 99 | 1065.1 |
| 20260506232921 | 48 | 226 | 1.7 | 1.7 | 0.00 | 1.11 | 1.11 | 99 | 1065.1 |
| 20260506232418 | 48 | 275 | 1.7 | 1.7 | 0.00 | 1.11 | 1.11 | 99 | 1065.0 |
| 20260506231914 | 48 | 232 | 1.7 | 1.7 | 0.00 | 1.11 | 1.11 | 99 | 1065.1 |
| 20260506231412 | 48 | 176 | 0.9 | 0.9 | 0.00 | 1.11 | 1.11 | 99 | 1065.2 |
| 20260506230909 | 48 | 204 | 1.7 | 1.7 | 0.00 | 1.11 | 1.11 | 99 | 1065.3 |
| 20260506230405 | 48 | 225 | 0.9 | 0.9 | 0.00 | 1.11 | 1.11 | 99 | 1065.2 |
| 20260506225901 | 47 | 247 | 1.7 | 2.6 | 0.00 | 1.11 | 1.11 | 99 | 1065.0 |
| 20260506225359 | 47 | 244 | 1.7 | 0.9 | 0.00 | 1.11 | 1.11 | 99 | 1064.7 |
| 20260506224856 | 47 | 293 | 5.2 | 8.7 | 0.00 | 1.11 | 1.11 | 99 | 1064.5 |
| 20260506224353 | 47 | 316 | 3.5 | 3.5 | 0.00 | 1.11 | 1.11 | 99 | 1064.1 |
| 20260506223849 | 48 | 334 | 1.7 | 1.7 | 0.00 | 1.11 | 1.11 | 99 | 1064.5 |
| 20260506223345 | 47 | 312 | 4.3 | 6.1 | 0.00 | 1.11 | 1.11 | 99 | 1064.2 |
| 20260506222842 | 47 | 29 | 3.5 | 5.2 | 0.00 | 1.11 | 1.11 | 99 | 1064.1 |
| 20260506222337 | 47 | 359 | 4.3 | 5.2 | 0.00 | 1.11 | 1.11 | 99 | 1064.2 |
| 20260506221835 | 47 | 106 | 3.5 | 6.1 | 0.00 | 1.11 | 1.11 | 99 | 1064.2 |
| 20260506221333 | 47 | 300 | 4.3 | 6.1 | 0.00 | 1.11 | 1.11 | 99 | 1064.0 |
| 20260506220830 | 47 | 345 | 3.5 | 6.1 | 0.00 | 1.11 | 1.11 | 99 | 1063.9 |
| 20260506220325 | 47 | 285 | 3.5 | 5.2 | 0.00 | 1.11 | 1.11 | 99 | 1064.0 |
| 20260506215823 | 47 | 302 | 4.3 | 7.0 | 0.00 | 1.11 | 1.11 | 99 | 1063.7 |
| 20260506215318 | 47 | 111 | 2.6 | 3.5 | 0.00 | 1.11 | 1.11 | 99 | 1063.9 |
| 20260506214814 | 47 | 243 | 2.6 | 3.5 | 0.00 | 1.11 | 1.11 | 99 | 1063.5 |
| 20260506214311 | 47 | 207 | 2.6 | 3.5 | 0.00 | 1.11 | 1.11 | 99 | 1063.4 |
| 20260506213810 | 47 | 287 | 4.3 | 6.1 | 0.00 | 1.11 | 1.11 | 99 | 1063.4 |
| 20260506213306 | 47 | 317 | 2.6 | 5.2 | 0.00 | 1.11 | 1.11 | 99 | 1063.5 |
| 20260506212804 | 47 | 285 | 3.5 | 3.5 | 0.00 | 1.11 | 1.11 | 99 | 1063.7 |
| 20260506212259 | 46 | 265 | 3.5 | 5.2 | 0.00 | 1.11 | 1.11 | 99 | 1064.0 |
| 20260506211754 | 47 | 53 | 3.5 | 6.1 | 0.00 | 1.11 | 1.11 | 99 | 1063.9 |
| 20260506211251 | 47 | 320 | 2.6 | 5.2 | 0.00 | 1.11 | 1.11 | 99 | 1064.0 |
| 20260506210748 | 46 | 163 | 3.5 | 5.2 | 0.00 | 1.11 | 1.11 | 99 | 1064.4 |
| 20260506210245 | 46 | 328 | 1.7 | 5.2 | 0.00 | 1.11 | 1.11 | 99 | 1064.3 |
| 20260506205742 | 46 | 251 | 3.5 | 5.2 | 0.00 | 1.11 | 1.11 | 99 | 1064.3 |
| 20260506205238 | 47 | 212 | 3.5 | 5.2 | 0.00 | 1.11 | 1.11 | 99 | 1064.0 |
| 20260506204735 | 46 | 79 | 1.7 | 1.7 | 0.00 | 1.11 | 1.11 | 99 | 1064.0 |
| 20260506204232 | 46 | 320 | 2.6 | 5.2 | 0.00 | 1.11 | 1.11 | 99 | 1063.6 |
| 20260506203730 | 46 | 54 | 4.3 | 7.8 | 0.00 | 1.11 | 1.11 | 99 | 1063.5 |
| 20260506203227 | 46 | 109 | 2.6 | 5.2 | 0.00 | 1.11 | 1.11 | 99 | 1063.3 |
| 20260506202724 | 46 | 273 | 6.1 | 7.8 | 0.00 | 1.11 | 1.11 | 99 | 1063.5 |
| 20260506202221 | 46 | 217 | 1.7 | 2.6 | 0.00 | 1.11 | 1.11 | 99 | 1064.0 |
| 20260506201718 | 46 | 306 | 6.1 | 8.7 | 0.00 | 1.11 | 1.11 | 99 | 1064.4 |
| 20260506201214 | 46 | 316 | 5.2 | 7.0 | 0.00 | 1.11 | 1.11 | 99 | 1064.4 |
| 20260506200711 | 46 | 101 | 6.1 | 9.6 | 0.00 | 1.11 | 1.11 | 99 | 1063.7 |
| 20260506200209 | 46 | 353 | 3.5 | 6.1 | 0.00 | 1.11 | 1.11 | 99 | 1063.9 |
| 20260506195705 | 45 | 140 | 5.2 | 8.7 | 0.00 | 1.11 | 1.11 | 99 | 1064.4 |
| 20260506195201 | 45 | 43 | 3.5 | 6.1 | 0.00 | 1.11 | 1.11 | 99 | 1064.1 |
| 20260506194658 | 46 | 100 | 2.6 | 3.5 | 0.00 | 1.11 | 1.11 | 99 | 1063.9 |
| 20260506194154 | 45 | 325 | 2.6 | 5.2 | 0.00 | 1.11 | 1.11 | 99 | 1063.9 |
| 20260506193652 | 45 | 7 | 7.8 | 8.7 | 0.00 | 1.11 | 1.11 | 99 | 1064.0 |
| 20260506193149 | 45 | 305 | 3.5 | 5.2 | 0.00 | 1.11 | 1.11 | 99 | 1064.1 |
| 20260506192646 | 45 | 3 | 5.2 | 9.6 | 0.00 | 1.11 | 1.11 | 99 | 1063.7 |
| 20260506192142 | 45 | 217 | 2.6 | 3.5 | 0.00 | 1.11 | 1.11 | 99 | 1064.4 |
| 20260506191639 | 45 | 316 | 1.7 | 2.6 | 0.00 | 1.11 | 1.11 | 99 | 1064.9 |
| 20260506191135 | 45 | 167 | 2.6 | 5.2 | 0.00 | 1.11 | 1.11 | 99 | 1064.3 |
| 20260506190633 | 45 | 156 | 1.7 | 1.7 | 0.00 | 1.11 | 1.11 | 99 | 1063.0 |
| 20260506190129 | 45 | 49 | 3.5 | 5.2 | 0.05 | 1.11 | 1.11 | 99 | 1063.0 |
| 20260506185627 | 44 | 86 | 4.3 | 8.7 | 0.05 | 1.11 | 1.11 | 99 | 1062.6 |
| 20260506185123 | 45 | 327 | 5.2 | 8.7 | 0.07 | 1.10 | 1.10 | 99 | 1063.7 |
| 20260506184620 | 45 | 286 | 4.3 | 6.1 | 0.19 | 1.10 | 1.10 | 99 | 1064.4 |
| 20260506184117 | 45 | 191 | 0.9 | 0.9 | 0.17 | 1.09 | 1.09 | 99 | 1065.9 |
| 20260506183614 | 45 | 199 | 0.9 | 0.9 | 0.17 | 1.07 | 1.07 | 99 | 1066.2 |
| 20260506183109 | 44 | 240 | 3.5 | 5.2 | 0.31 | 1.06 | 1.06 | 99 | 1065.3 |
| 20260506182608 | 44 | 1 | 2.6 | 2.6 | 0.26 | 1.04 | 1.04 | 99 | 1064.9 |
| 20260506182104 | 44 | 187 | 3.5 | 5.2 | 0.19 | 1.01 | 1.01 | 99 | 1065.2 |
| 20260506181602 | 44 | 355 | 6.1 | 11.3 | 0.12 | 1.00 | 1.00 | 99 | 1065.0 |
| 20260506181059 | 44 | 329 | 1.7 | 1.7 | 0.07 | 0.99 | 0.99 | 99 | 1065.5 |
| 20260506180555 | 44 | 176 | 1.7 | 2.6 | 0.00 | 0.98 | 0.98 | 99 | 1065.4 |
| 20260506180052 | 44 | 202 | 0.9 | 1.7 | 0.00 | 0.98 | 0.98 | 99 | 1064.7 |
| 20260506175548 | 44 | 57 | 1.7 | 2.6 | 0.05 | 0.98 | 0.98 | 99 | 1064.7 |
| 20260506175045 | 44 | 146 | 1.7 | 5.2 | 0.05 | 0.98 | 0.98 | 99 | 1065.5 |
| 20260506174544 | 44 | 75 | 1.7 | 1.7 | 0.00 | 0.97 | 0.97 | 99 | 1065.4 |
| 20260506174039 | 44 | 8 | 4.3 | 7.0 | 0.00 | 0.97 | 0.97 | 99 | 1065.3 |
| 20260506173537 | 44 | 19 | 4.3 | 7.0 | 0.07 | 0.97 | 0.97 | 99 | 1065.3 |
| 20260506173034 | 44 | 270 | 3.5 | 6.1 | 0.07 | 0.97 | 0.97 | 99 | 1065.6 |
| 20260506172531 | 44 | 320 | 4.3 | 5.2 | 0.00 | 0.96 | 0.96 | 99 | 1066.2 |
| 20260506172027 | 44 | 122 | 3.5 | 5.2 | 0.00 | 0.96 | 0.96 | 99 | 1066.3 |
| 20260506171525 | 44 | 144 | 1.7 | 1.7 | 0.00 | 0.96 | 0.96 | 99 | 1066.6 |
| 20260506171022 | 45 | 108 | 1.7 | 1.7 | 0.05 | 0.96 | 0.96 | 99 | 1065.9 |
| 20260506170520 | 44 | 298 | 1.7 | 1.7 | 0.05 | 0.96 | 0.96 | 99 | 1065.4 |
| 20260506170018 | 44 | 239 | 1.7 | 2.6 | 0.00 | 0.95 | 0.95 | 99 | 1065.6 |
| 20260506165516 | 44 | 270 | 3.5 | 5.2 | 0.00 | 0.95 | 0.95 | 99 | 1066.1 |
| 20260506165011 | 45 | 63 | 3.5 | 3.5 | 0.00 | 0.95 | 0.95 | 99 | 1065.5 |
| 20260506164508 | 44 | 235 | 4.3 | 7.0 | 0.12 | 0.95 | 0.95 | 99 | 1065.1 |
| 20260506164006 | 44 | 309 | 3.5 | 3.5 | 0.12 | 0.95 | 0.95 | 99 | 1065.2 |
| 20260506163501 | 44 | 256 | 4.3 | 7.8 | 0.00 | 0.93 | 0.93 | 99 | 1064.7 |
| 20260506162956 | 44 | 50 | 1.7 | 1.7 | 0.00 | 0.93 | 0.93 | 99 | 1065.1 |
| 20260506162454 | 44 | 49 | 5.2 | 7.8 | 0.00 | 0.93 | 0.93 | 99 | 1064.8 |
| 20260506161951 | 45 | 136 | 4.3 | 7.8 | 0.00 | 0.93 | 0.93 | 99 | 1064.7 |
| 20260506161449 | 45 | 356 | 4.3 | 6.1 | 0.00 | 0.93 | 0.93 | 99 | 1065.1 |
| 20260506160946 | 45 | 65 | 4.3 | 7.0 | 0.00 | 0.93 | 0.93 | 99 | 1065.6 |
| 20260506160443 | 45 | 275 | 3.5 | 3.5 | 0.00 | 0.93 | 0.93 | 99 | 1065.3 |
| 20260506155940 | 45 | 15 | 7.0 | 7.8 | 0.07 | 0.93 | 0.93 | 99 | 1065.1 |
| 20260506155439 | 44 | 138 | 1.7 | 1.7 | 0.07 | 0.93 | 0.93 | 99 | 1064.6 |
| 20260506153605 | 45 | 307 | 2.6 | 3.5 | 0.00 | 0.91 | 0.91 | 99 | 1064.7 |
| 20260506153102 | 45 | 275 | 5.2 | 7.0 | 0.00 | 0.91 | 0.91 | 99 | 1064.8 |
| 20260506152559 | 45 | 304 | 3.5 | 3.5 | 0.00 | 0.91 | 0.91 | 99 | 1064.9 |
| 20260506152057 | 45 | 250 | 2.6 | 2.6 | 0.00 | 0.91 | 0.91 | 99 | 1064.5 |
| 20260506151555 | 45 | 203 | 1.7 | 2.6 | 0.00 | 0.91 | 0.91 | 99 | 1064.0 |
| 20260506151052 | 45 | 257 | 3.5 | 6.1 | 0.00 | 0.91 | 0.91 | 99 | 1063.6 |
| 20260506150548 | 45 | 224 | 6.1 | 9.6 | 0.00 | 0.91 | 0.91 | 99 | 1063.5 |
| 20260506150045 | 44 | 283 | 5.2 | 7.0 | 0.00 | 0.91 | 0.91 | 99 | 1064.2 |
| 20260506145542 | 45 | 332 | 4.3 | 7.8 | 0.00 | 0.91 | 0.91 | 99 | 1064.4 |
| 20260506145039 | 45 | 138 | 5.2 | 9.6 | 0.00 | 0.91 | 0.91 | 99 | 1064.5 |
| 20260506144536 | 45 | 88 | 4.3 | 7.0 | 0.00 | 0.91 | 0.91 | 99 | 1064.3 |
| 20260506144033 | 45 | 319 | 5.2 | 7.0 | 0.07 | 0.91 | 0.91 | 99 | 1064.3 |
| 20260506143531 | 45 | 347 | 6.1 | 8.7 | 0.07 | 0.91 | 0.91 | 99 | 1064.4 |
| 20260506143029 | 45 | 40 | 5.2 | 8.7 | 0.00 | 0.90 | 0.90 | 99 | 1063.7 |
| 20260506142526 | 44 | 91 | 3.5 | 7.8 | 0.00 | 0.90 | 0.90 | 99 | 1063.7 |
| 20260506142024 | 44 | 227 | 4.3 | 6.1 | 0.00 | 0.90 | 0.90 | 99 | 1064.3 |
| 20260506141522 | 45 | 304 | 4.3 | 6.1 | 0.00 | 0.90 | 0.90 | 99 | 1064.3 |
| 20260506141020 | 45 | 278 | 3.5 | 3.5 | 0.00 | 0.90 | 0.90 | 99 | 1064.5 |
| 20260506140517 | 45 | 332 | 7.0 | 7.8 | 0.00 | 0.90 | 0.90 | 99 | 1064.2 |
| 20260506140015 | 45 | 243 | 2.6 | 3.5 | 0.00 | 0.90 | 0.90 | 99 | 1063.7 |
| 20260506135511 | 44 | 351 | 3.5 | 5.2 | 0.00 | 0.90 | 0.90 | 99 | 1063.4 |
| 20260506135007 | 44 | 359 | 2.6 | 3.5 | 0.00 | 0.90 | 0.90 | 99 | 1063.0 |
| 20260506134504 | 44 | 232 | 4.3 | 6.1 | 0.00 | 0.90 | 0.90 | 99 | 1063.3 |
| 20260506134000 | 45 | 234 | 7.8 | 13.9 | 0.00 | 0.90 | 0.90 | 99 | 1063.0 |
| 20260506133457 | 45 | 262 | 3.5 | 3.5 | 0.00 | 0.90 | 0.90 | 99 | 1063.1 |
| 20260506132954 | 45 | 349 | 5.2 | 9.6 | 0.00 | 0.90 | 0.90 | 99 | 1063.3 |
| 20260506132451 | 45 | 6 | 7.0 | 9.6 | 0.00 | 0.90 | 0.90 | 99 | 1063.2 |
| 20260506131948 | 45 | 201 | 4.3 | 7.8 | 0.00 | 0.90 | 0.90 | 99 | 1063.5 |
| 20260506131445 | 45 | 339 | 7.0 | 9.6 | 0.00 | 0.90 | 0.90 | 99 | 1063.2 |
| 20260506130942 | 46 | 65 | 5.2 | 7.8 | 0.00 | 0.90 | 0.90 | 99 | 1063.6 |
| 20260506130438 | 46 | 4 | 4.3 | 7.8 | 0.00 | 0.90 | 0.90 | 99 | 1063.2 |
| 20260506125936 | 46 | 317 | 6.1 | 8.7 | 0.00 | 0.90 | 0.90 | 99 | 1063.4 |
| 20260506125434 | 46 | 328 | 7.0 | 8.7 | 0.00 | 0.90 | 0.90 | 99 | 1063.6 |
| 20260506124932 | 46 | 257 | 2.6 | 5.2 | 0.00 | 0.90 | 0.90 | 99 | 1063.2 |
| 20260506124429 | 47 | 334 | 5.2 | 13.0 | 0.00 | 0.90 | 0.90 | 99 | 1063.1 |
| 20260506123927 | 47 | 295 | 4.3 | 6.1 | 0.05 | 0.90 | 0.90 | 99 | 1063.3 |
| 20260506123425 | 47 | 283 | 5.2 | 7.0 | 0.05 | 0.90 | 0.90 | 99 | 1062.9 |
| 20260506122922 | 47 | 312 | 5.2 | 6.1 | 0.00 | 0.89 | 0.89 | 99 | 1062.9 |
| 20260506122419 | 47 | 216 | 2.6 | 3.5 | 0.00 | 0.89 | 0.89 | 99 | 1062.8 |
| 20260506121918 | 47 | 338 | 7.8 | 9.6 | 0.00 | 0.89 | 0.89 | 99 | 1062.7 |
| 20260506121414 | 47 | 317 | 3.5 | 6.1 | 0.00 | 0.89 | 0.89 | 99 | 1062.3 |
| 20260506120911 | 48 | 61 | 3.5 | 5.2 | 0.00 | 0.89 | 0.89 | 99 | 1062.2 |
| 20260506120408 | 48 | 20 | 4.3 | 9.6 | 0.00 | 0.89 | 0.89 | 99 | 1062.1 |
| 20260506115906 | 48 | 260 | 2.6 | 3.5 | 0.00 | 0.89 | 0.89 | 99 | 1062.2 |
| 20260506115404 | 49 | 26 | 4.3 | 7.0 | 0.00 | 0.89 | 0.89 | 99 | 1061.7 |
| 20260506114902 | 49 | 265 | 3.5 | 7.0 | 0.00 | 0.89 | 0.89 | 99 | 1061.6 |
| 20260506114359 | 49 | 136 | 0.9 | 1.7 | 0.00 | 0.89 | 0.89 | 99 | 1061.4 |
| 20260506113858 | 49 | 327 | 3.5 | 6.1 | 0.07 | 0.89 | 0.89 | 99 | 1061.6 |
| 20260506113355 | 49 | 51 | 1.7 | 3.5 | 0.07 | 0.89 | 0.89 | 99 | 1061.4 |
| 20260506112851 | 50 | 356 | 5.2 | 7.0 | 0.00 | 0.88 | 0.88 | 99 | 1061.4 |
| 20260506112348 | 50 | 239 | 2.6 | 3.5 | 0.00 | 0.88 | 0.88 | 99 | 1060.9 |
| 20260506111846 | 50 | 220 | 2.6 | 3.5 | 0.00 | 0.88 | 0.88 | 99 | 1061.2 |
| 20260506111344 | 50 | 231 | 3.5 | 5.2 | 0.07 | 0.88 | 0.88 | 99 | 1061.2 |
| 20260506110841 | 50 | 323 | 3.5 | 5.2 | 0.07 | 0.88 | 0.88 | 99 | 1061.4 |
| 20260506110338 | 51 | 294 | 5.2 | 6.1 | 0.00 | 0.87 | 0.87 | 99 | 1060.7 |
| 20260506105835 | 51 | 209 | 2.6 | 2.6 | 0.00 | 0.87 | 0.87 | 99 | 1060.5 |
| 20260506105331 | 51 | 179 | 2.6 | 5.2 | 0.00 | 0.87 | 0.87 | 99 | 1060.8 |
| 20260506104829 | 51 | 95 | 1.7 | 1.7 | 0.00 | 0.87 | 0.87 | 99 | 1060.7 |
| 20260506104326 | 51 | 107 | 3.5 | 5.2 | 0.00 | 0.87 | 0.87 | 99 | 1060.5 |
| 20260506103824 | 51 | 311 | 2.6 | 3.5 | 0.00 | 0.87 | 0.87 | 99 | 1060.6 |
| 20260506103321 | 52 | 322 | 4.3 | 5.2 | 0.00 | 0.87 | 0.87 | 99 | 1060.4 |
| 20260506102819 | 52 | 315 | 3.5 | 7.8 | 0.00 | 0.87 | 0.87 | 99 | 1060.7 |
| 20260506102316 | 52 | 321 | 3.5 | 6.1 | 0.00 | 0.87 | 0.87 | 99 | 1059.9 |
| 20260506101814 | 53 | 355 | 4.3 | 5.2 | 0.00 | 0.87 | 0.87 | 99 | 1060.2 |
| 20260506101309 | 53 | 277 | 5.2 | 7.8 | 0.00 | 0.87 | 0.87 | 99 | 1059.6 |
| 20260506100808 | 53 | 294 | 3.5 | 3.5 | 0.05 | 0.87 | 0.87 | 99 | 1059.9 |
| 20260506100306 | 53 | 191 | 1.7 | 1.7 | 0.05 | 0.87 | 0.87 | 99 | 1060.3 |
| 20260506095804 | 53 | 329 | 3.5 | 5.2 | 0.00 | 0.86 | 0.86 | 99 | 1060.1 |
| 20260506095300 | 53 | 170 | 0.9 | 0.9 | 0.00 | 0.86 | 0.86 | 99 | 1060.2 |
| 20260506094757 | 54 | 256 | 1.7 | 2.6 | 0.00 | 0.86 | 0.86 | 99 | 1059.9 |
| 20260506094255 | 54 | 143 | 3.5 | 3.5 | 0.00 | 0.86 | 0.86 | 99 | 1060.1 |
| 20260506093754 | 54 | 6 | 5.2 | 7.0 | 0.00 | 0.86 | 0.86 | 99 | 1059.6 |
| 20260506093250 | 53 | 249 | 1.7 | 1.7 | 0.00 | 0.86 | 0.86 | 99 | 1059.4 |
| 20260506092749 | 53 | 70 | 1.7 | 1.7 | 0.00 | 0.86 | 0.86 | 99 | 1059.7 |
| 20260506092246 | 53 | 335 | 5.2 | 7.0 | 0.00 | 0.86 | 0.86 | 99 | 1059.5 |
| 20260506091743 | 53 | 319 | 4.3 | 7.0 | 0.00 | 0.86 | 0.86 | 99 | 1059.6 |
| 20260506091240 | 53 | 324 | 5.2 | 7.8 | 0.00 | 0.86 | 0.86 | 99 | 1059.7 |
| 20260506090738 | 53 | 314 | 5.2 | 7.8 | 0.00 | 0.86 | 0.86 | 99 | 1059.4 |
| 20260506090235 | 53 | 347 | 2.6 | 3.5 | 0.00 | 0.86 | 0.86 | 99 | 1059.2 |
| 20260506085732 | 54 | 301 | 4.3 | 6.1 | 0.00 | 0.86 | 0.86 | 99 | 1059.2 |
| 20260506085228 | 54 | 49 | 7.8 | 8.7 | 0.00 | 0.86 | 0.86 | 99 | 1059.2 |
| 20260506084725 | 54 | 226 | 5.2 | 7.0 | 0.00 | 0.86 | 0.86 | 99 | 1059.1 |
| 20260506084221 | 55 | 329 | 2.6 | 3.5 | 0.00 | 0.86 | 0.86 | 99 | 1058.8 |
| 20260506083718 | 55 | 328 | 6.1 | 7.8 | 0.00 | 0.86 | 0.86 | 99 | 1059.0 |
| 20260506083216 | 55 | 328 | 4.3 | 5.2 | 0.00 | 0.86 | 0.86 | 99 | 1059.4 |
| 20260506082713 | 56 | 307 | 3.5 | 6.1 | 0.00 | 0.86 | 0.86 | 99 | 1059.6 |
| 20260506082208 | 56 | 342 | 6.1 | 7.8 | 0.00 | 0.86 | 0.86 | 99 | 1059.4 |
| 20260506081706 | 57 | 185 | 1.7 | 3.5 | 0.00 | 0.86 | 0.86 | 99 | 1059.5 |
| 20260506081204 | 57 | 260 | 2.6 | 2.6 | 1.44 | 0.86 | 0.86 | 99 | 1059.4 |
| 20260506080701 | 56 | 200 | 0.9 | 0.9 | 1.63 | 0.86 | 0.86 | 99 | 1059.2 |
| 20260506080158 | 55 | 283 | 5.2 | 7.0 | 0.00 | 0.59 | 0.59 | 99 | 1060.8 |
| 20260506073142 | 56 | 325 | 5.2 | 8.7 | 2.88 | 0.49 | 0.49 | 99 | 1058.2 |
| 20260506072638 | 57 | 265 | 14.8 | 21.7 | 0.38 | 0.06 | 0.06 | 98 | 1060.7 |
| 20260506072136 | 57 | 15 | 5.2 | 7.0 | 0.07 | 0.01 | 0.01 | 98 | 1057.1 |
| 20260506071633 | 57 | 41 | 2.6 | 3.5 | 0.00 | 0.00 | 0.00 | 98 | 1056.6 |
| 20260506071131 | 58 | 296 | 4.3 | 5.2 | 0.00 | 0.00 | 0.00 | 98 | 1057.1 |
| 20260506070627 | 59 | 358 | 4.3 | 6.1 | 0.00 | 0.00 | 0.00 | 98 | 1057.6 |
| 20260506070125 | 59 | 322 | 1.7 | 2.6 | 0.00 | 0.00 | 0.00 | 98 | 1057.8 |
| 20260506062103 | 60 | 17 | 5.2 | 7.0 | 0.00 | 0.00 | 0.00 | 97 | 1058.3 |
| 20260506061558 | 61 | 249 | 2.6 | 2.6 | 0.00 | 0.00 | 0.00 | 97 | 1058.7 |
| 20260506061056 | 61 | 66 | 4.3 | 7.8 | 0.00 | 0.00 | 0.00 | 97 | 1058.5 |
| 20260506060554 | 62 | 354 | 3.5 | 3.5 | 0.00 | 0.00 | 0.00 | 97 | 1058.7 |
| 20260506051023 | 70 | 202 | 0.9 | 0.9 | 0.00 | 0.00 | 0.00 | 94 | 1058.6 |
| 20260506050521 | 70 | 213 | 1.7 | 1.7 | 0.00 | 0.00 | 0.00 | 93 | 1058.9 |